EW0680 Weather Reports


time (UTC)temp
C
wind
direction
speed
KPH
gust
KPH
rain 1hr
cm
rain 24hr
cm
rain mn
cm
humidity
%
barometer
mb
20260902150054 30 312 3.2 6.4 0.00 0.00 0.00 76 1016.9
20260902144559 28 317 1.6 6.4 0.00 0.00 0.00 77 1017.0
20260902143055 28 321 1.6 6.4 0.00 0.00 0.00 78 1017.0
20260902141538 27 312 0.0 4.8 0.00 0.00 0.00 79 1017.1
20260902140039 27 315 0.0 4.8 0.00 0.00 0.00 82 1017.0
20260902134541 26 314 1.6 4.8 0.00 0.00 0.00 82 1017.0
20260902133054 26 313 0.0 1.6 0.00 0.00 0.00 83 1017.0
20260902131540 25 300 0.0 0.0 0.00 0.00 0.00 85 1017.0
20260902130043 25 285 0.0 0.0 0.00 0.00 0.00 86 1017.1
20260902124523 24 285 0.0 1.6 0.00 0.00 0.00 87 1017.0
20260902123009 23 285 0.0 0.0 0.00 0.00 0.00 88 1017.0
20260902121514 22 285 0.0 0.0 0.00 0.00 0.00 88 1016.9
20260902120019 22 285 0.0 0.0 0.00 0.00 0.00 88 1016.8
20260902114520 22 285 0.0 0.0 0.00 0.00 0.00 88 1016.6
20260902113024 22 285 0.0 0.0 0.00 0.00 0.00 88 1016.5
20260902111531 21 285 0.0 0.0 0.00 0.00 0.00 88 1016.3
20260902110037 22 285 0.0 0.0 0.00 0.00 0.00 88 1016.2
20260902104558 22 285 0.0 0.0 0.00 0.00 0.00 88 1016.1
20260902103040 22 285 0.0 0.0 0.00 0.00 0.00 88 1016.1
20260902101551 22 285 0.0 0.0 0.00 0.00 0.00 88 1016.0
20260902100045 22 285 0.0 0.0 0.00 0.00 0.00 88 1016.0
20260902093030 22 285 0.0 0.0 0.00 0.00 0.00 88 1016.1
20260902091538 22 285 0.0 0.0 0.00 0.00 0.00 88 1016.1
20260902090036 22 285 0.0 0.0 0.00 0.00 0.00 88 1016.0
20260902084542 22 285 0.0 0.0 0.00 0.00 0.00 88 1015.9
20260902083056 22 285 0.0 0.0 0.00 0.00 0.00 88 1015.8
20260902081546 22 285 0.0 0.0 0.00 0.00 0.00 88 1015.7
20260902080050 22 285 0.0 0.0 0.00 0.00 0.00 88 1015.6
20260902074609 22 285 0.0 0.0 0.00 0.00 0.00 87 1015.7
20260902073059 22 285 0.0 0.0 0.00 0.00 0.00 87 1015.5
20260902073003 23 285 0.0 0.0 0.00 0.00 0.00 87 1015.5
20260902071504 23 285 0.0 0.0 0.00 0.00 0.00 87 1015.6
20260902070010 23 285 0.0 0.0 0.00 0.00 0.00 87 1015.7
20260902064508 23 285 0.0 0.0 0.00 0.00 0.00 88 1015.7
20260902063008 22 285 0.0 0.0 0.00 0.00 0.00 87 1015.8
20260902061518 23 285 0.0 0.0 0.00 0.00 0.00 86 1015.9
20260902060010 23 285 0.0 0.0 0.00 0.00 0.00 86 1015.9
20260902054518 23 285 0.0 0.0 0.00 0.00 0.00 86 1015.8
20260902053105 23 285 0.0 0.0 0.00 0.00 0.00 86 1015.8
20260902051615 23 285 0.0 0.0 0.00 0.00 0.00 85 1015.7
20260902050108 24 285 0.0 0.0 0.00 0.00 0.00 85 1015.7
20260902050007 24 285 0.0 0.0 0.00 0.00 0.00 85 1015.7
20260902044520 24 285 0.0 0.0 0.00 0.00 0.00 85 1015.7
20260902043012 24 285 0.0 0.0 0.00 0.00 0.00 85 1015.7
20260902041514 24 285 0.0 0.0 0.00 0.00 0.00 85 1015.8
20260902040012 25 285 0.0 0.0 0.00 0.00 0.00 85 1015.9
20260902034554 25 285 0.0 0.0 0.00 0.00 0.00 85 1015.7
20260902034501 25 285 0.0 0.0 0.00 0.00 0.00 85 1015.7
20260902033058 25 285 0.0 0.0 0.00 0.00 0.00 84 1015.7
20260902031537 25 285 0.0 0.0 0.00 0.00 0.00 84 1015.7
20260902030031 25 285 0.0 0.0 0.00 0.00 0.00 84 1015.7
20260902024534 25 285 0.0 0.0 0.00 0.00 0.00 83 1015.8
20260902023039 26 285 0.0 0.0 0.00 0.00 0.00 83 1015.8
20260902021544 26 285 0.0 0.0 0.00 0.00 0.00 83 1015.7
20260902020046 26 285 0.0 0.0 0.00 0.00 0.00 83 1015.6
20260902014532 26 285 0.0 0.0 0.00 0.00 0.00 82 1015.5
20260902013038 26 285 0.0 0.0 0.00 0.00 0.00 81 1015.5
20260902011559 26 285 0.0 0.0 0.00 0.00 0.00 81 1015.3
20260902010051 27 285 0.0 0.0 0.00 0.00 0.00 80 1015.1
20260902004600 27 285 0.0 0.0 0.00 0.00 0.00 79 1015.1
20260902003004 28 285 0.0 0.0 0.00 0.00 0.00 78 1015.2
20260902001508 28 285 0.0 0.0 0.00 0.00 0.00 77 1015.2
20260902000010 29 285 0.0 0.0 0.00 0.00 0.00 77 1015.2
20260901234517 29 285 0.0 0.0 0.00 0.00 0.00 76 1015.2
20260901233026 30 285 0.0 0.0 0.00 0.00 0.00 76 1015.4
20260901231519 30 284 0.0 0.0 0.00 0.00 0.00 76 1015.4
20260901230011 31 284 0.0 0.0 0.00 0.00 0.00 75 1015.4
20260901224525 31 284 0.0 0.0 0.00 0.00 0.00 73 1015.5
20260901223022 31 284 0.0 0.0 0.00 0.00 0.00 72 1015.4
20260901221559 31 284 0.0 0.0 0.00 0.00 0.00 71 1015.3
20260901220013 31 148 0.0 1.6 0.00 0.00 0.00 71 1015.4
20260901214520 31 299 0.0 1.6 0.00 0.00 0.00 69 1015.3
20260901213028 32 323 0.0 4.8 0.00 0.00 0.00 69 1015.4
20260901211536 33 325 0.0 3.2 0.00 0.00 0.00 65 1015.5
20260901210040 33 269 0.0 6.4 0.00 0.00 0.00 64 1015.5
20260901204550 33 177 0.0 6.4 0.00 0.00 0.00 66 1015.4
20260901203059 33 312 0.0 4.8 0.00 0.00 0.00 66 1015.4
20260901201600 33 9 0.0 0.0 0.00 0.00 0.00 65 1015.5
20260901201503 33 320 0.0 0.0 0.00 0.00 0.00 64 1015.5
20260901200021 33 276 0.0 4.8 0.00 0.00 0.00 66 1015.7
20260901194517 33 118 0.0 3.2 0.00 0.00 0.00 67 1015.8
20260901193017 33 294 0.0 0.0 0.00 0.00 0.00 65 1015.7
20260901191636 33 38 0.0 6.4 0.00 0.00 0.00 70 1015.7
20260901191502 33 117 0.0 6.4 0.00 0.00 0.00 68 1015.7
20260901190010 33 89 0.0 8.0 0.00 0.00 0.00 68 1015.8
20260901184511 33 260 0.0 0.0 0.00 0.00 0.00 70 1016.0
20260901183026 33 51 0.0 6.4 0.00 0.00 0.00 69 1016.0
20260901181506 32 47 1.6 6.4 0.00 0.00 0.00 69 1016.1
20260901180009 32 90 0.0 4.8 0.00 0.00 0.00 70 1016.2
20260901174511 32 290 0.0 4.8 0.00 0.00 0.00 70 1016.1
20260901173013 32 308 3.2 6.4 0.00 0.00 0.00 68 1016.2
20260901171514 32 82 1.6 6.4 0.00 0.00 0.00 69 1016.5
20260901170016 31 182 0.0 4.8 0.00 0.00 0.00 71 1016.8
20260901164517 31 281 0.0 4.8 0.00 0.00 0.00 74 1016.9
20260901163019 30 267 0.0 3.2 0.00 0.00 0.00 73 1017.0
20260901161526 30 250 0.0 3.2 0.00 0.00 0.00 74 1016.9
20260901160027 30 317 0.0 4.8 0.00 0.00 0.00 72 1017.0
20260901154533 30 281 0.0 4.8 0.00 0.00 0.00 74 1017.0
20260901153032 28 360 0.0 0.0 0.00 0.00 0.00 78 1017.0
20260901151544 28 152 1.6 6.4 0.00 0.00 0.00 76 1017.1